Home > Weather > Bursa > Past weeks

Flag for Turkey Weather for the Past 2 Weeks in Bursa, Turkey

Now
27 °F

Sleet. Ice fog.


Feels Like: 27 °F
Forecast: 32 / 60 °F
Wind: No wind

Location: Bursa / Yenisehir - Mil-Civ

Current Time: Feb 9, 2016 at 4:07:21 AM

Latest Report: Feb 9, 2016 at 3:20 AM


Visibility: 2 mi

Pressure: 30.24 "Hg

Humidity: 100%

Dew point: 27 °F

Location of BursaLocation

Historic Weather in Bursa — Graph

°F

Bursa Temperature Yesterday

Maximum temperature yesterday: 52 °F (at 3:20 PM)
Minimum temperature yesterday: 23 °F (at 6:50 AM)
Average temperature yesterday: 35 °F

High & Low Weather Summary for the Past Weeks

 TemperatureHumidityPressure
High63 °F (Feb 2, 1:50 PM)100% (Jan 26, 8:20 PM)30.48 "Hg (Jan 26, 8:20 PM)
Low16 °F (Jan 26, 3:50 AM)42% (Feb 4, 11:50 AM)29.71 "Hg (Feb 5, 11:50 AM)
Average38 °F86%30.25 "Hg
* Reported Jan 25 3:20 AM — Feb 9 3:01 AM, Bursa, Weather by CustomWeather, © 2016

Note: Actual official high and low records may vary slightly from our data, if they occured in-between our weather recording intervals... More about our weather records

Advertising

Bursa Weather History for the Previous 24 Hours

 ConditionsComfort  
Time TempWeatherWind HumidityBarometerVisibility
3:01 AM
Tue, Feb 9
27 °FIce fog.No wind100%30.24 "Hg2 mi
2:20 AM27 °FClear.2 mph100%30.24 "Hg10 mi
1:50 AM27 °FClear.No wind100%30.27 "Hg10 mi
1:20 AM27 °FClear.2 mph100%30.27 "Hg10 mi
12:50 AM28 °FClear.1 mph93%30.27 "Hg10 mi
12:20 AM28 °FClear.1 mph100%30.27 "Hg10 mi
11:50 PM
Mon, Feb 8
28 °FClear.3 mph100%30.27 "Hg10 mi
11:20 PM28 °FClear.2 mph93%30.27 "Hg10 mi
10:50 PM30 °FClear.1 mph93%30.27 "Hg10 mi
10:20 PM30 °FClear.No wind100%30.24 "Hg10 mi
9:50 PM30 °FClear.1 mph93%30.24 "Hg10 mi
9:20 PM32 °FClear.3 mph93%30.24 "Hg10 mi
8:50 PM32 °FClear.1 mph93%30.24 "Hg10 mi
8:20 PM32 °FClear.2 mph100%30.24 "Hg10 mi
7:50 PM34 °FClear.2 mph93%30.24 "Hg10 mi
7:20 PM36 °FClear.3 mph87%30.24 "Hg10 mi
6:50 PM37 °FPassing clouds.3 mph87%30.24 "HgN/A
6:20 PM37 °FClear.3 mph87%30.24 "Hg10 mi
5:50 PM43 °FClear.1 mph71%30.24 "Hg10 mi
5:20 PM45 °FSunny.2 mph66%30.21 "Hg10 mi
4:50 PM48 °FSunny.2 mph58%30.21 "Hg10 mi
4:20 PM50 °FPassing clouds.3 mph50%30.21 "HgN/A
3:50 PM50 °FSunny.3 mph50%30.21 "Hg10 mi
3:20 PM52 °FSunny.6 mph47%30.21 "Hg10 mi
2:50 PM50 °FSunny.6 mph50%30.21 "Hg10 mi
2:20 PM48 °FPassing clouds.3 mph54%30.24 "HgN/A
1:50 PM50 °FSunny.2 mph50%30.24 "Hg10 mi
1:20 PM46 °FPassing clouds.5 mph53%30.24 "HgN/A
12:50 PM46 °FPassing clouds.9 mph53%30.24 "HgN/A
12:20 PM46 °FSunny.17 mph50%30.27 "Hg10 mi
11:50 AM45 °FSunny.12 mph53%30.27 "Hg10 mi
11:20 AM43 °FSunny.3 mph61%30.30 "Hg10 mi
10:50 AM37 °FPassing clouds.3 mph75%30.30 "HgN/A
10:20 AM36 °FSunny.2 mph75%30.30 "Hg10 mi
9:50 AM34 °FSunny.2 mph75%30.33 "Hg10 mi
9:20 AM32 °FClear.2 mph87%30.33 "Hg5 mi
8:50 AM28 °FClear.3 mph93%30.33 "Hg4 mi
8:20 AM27 °FClear.2 mph93%30.33 "Hg4 mi
7:50 AM23 °FClear.No wind100%30.33 "Hg4 mi
7:20 AM23 °FIce fog.2 mph93%30.33 "Hg3 mi
6:50 AM23 °FClear.1 mph93%30.33 "Hg4 mi
6:20 AM25 °FIce fog.3 mph93%30.30 "Hg3 mi
5:50 AM25 °FIce fog.2 mph93%30.30 "Hg3 mi
5:20 AM25 °FIce fog.3 mph93%30.30 "Hg3 mi
4:50 AM25 °FClear.2 mph93%30.30 "Hg4 mi
4:20 AM25 °FClear.2 mph100%30.30 "Hg4 mi
Weather by CustomWeather, © 2016

See weather overviewHow to use our weather pages